OK1HOL-14 Weather Reports


time (UTC)temp
C
wind
direction
speed
KPH
gust
KPH
rain 1hr
cm
rain 24hr
cm
rain mn
cm
humidity
%
barometer
mb
20260507150329 12 0.0 0.0 0.00 0.00 0.00 77 1014.5
20260507145329 12 0.0 0.0 0.00 0.00 0.00 76 1014.5
20260507144329 13 0.0 0.0 0.00 0.00 0.00 72 1014.5
20260507143329 14 0.0 0.0 0.00 0.00 0.00 65 1014.4
20260507142329 14 0.0 0.0 0.00 0.00 0.00 66 1014.4
20260507141329 15 0.0 0.0 0.00 0.00 0.00 65 1014.1
20260507140329 15 0.0 0.0 0.00 0.00 0.00 63 1014.2
20260507135329 15 0.0 0.0 0.00 0.00 0.00 62 1014.1
20260507134329 15 0.0 0.0 0.00 0.00 0.00 62 1014.0
20260507133329 15 0.0 0.0 0.00 0.00 0.00 61 1014.0
20260507132336 16 0.0 0.0 0.00 0.00 0.00 60 1014.0
20260507131343 16 0.0 0.0 0.00 0.00 0.00 59 1014.0
20260507130336 16 0.0 0.0 0.00 0.00 0.00 58 1014.0
20260507125336 16 0.0 0.0 0.00 0.00 0.00 59 1013.8
20260507124336 16 0.0 0.0 0.00 0.00 0.00 59 1013.8
20260507123344 16 0.0 0.0 0.00 0.00 0.00 61 1013.7
20260507122336 16 0.0 0.0 0.00 0.00 0.00 61 1013.8
20260507121336 16 0.0 0.0 0.00 0.00 0.00 60 1013.7
20260507120337 16 0.0 0.0 0.00 0.00 0.00 61 1013.7
20260507115343 15 0.0 0.0 0.00 0.00 0.00 62 1013.6
20260507114336 15 0.0 0.0 0.00 0.00 0.00 61 1013.6
20260507113336 15 0.0 0.0 0.00 0.00 0.00 62 1013.6
20260507112336 16 0.0 0.0 0.00 0.00 0.00 62 1013.6
20260507111343 15 0.0 0.0 0.00 0.00 0.00 63 1013.5
20260507110336 14 0.0 0.0 0.00 0.00 0.00 63 1013.5
20260507105337 14 0.0 0.0 0.00 0.00 0.00 65 1013.5
20260507104336 14 0.0 0.0 0.00 0.00 0.00 65 1013.5
20260507103344 14 0.0 0.0 0.00 0.00 0.00 65 1013.4
20260507102336 14 0.0 0.0 0.00 0.00 0.00 65 1013.3
20260507101336 15 0.0 0.0 0.00 0.00 0.00 65 1013.2
20260507100336 15 0.0 0.0 0.00 0.00 0.00 66 1013.1
20260507095343 15 0.0 0.0 0.00 0.00 0.00 67 1013.1
20260507094336 15 0.0 0.0 0.00 0.00 0.00 65 1013.0
20260507093336 15 0.0 0.0 0.00 0.00 0.00 67 1012.9
20260507092337 14 0.0 0.0 0.00 0.00 0.00 70 1012.9
20260507091343 13 0.0 0.0 0.00 0.00 0.00 71 1012.7
20260507090336 13 0.0 0.0 0.00 0.00 0.00 71 1012.7
20260507085336 13 0.0 0.0 0.00 0.00 0.00 71 1012.5
20260507084337 13 0.0 0.0 0.00 0.00 0.00 72 1012.4
20260507083344 13 0.0 0.0 0.00 0.00 0.00 74 1012.3
20260507082336 13 0.0 0.0 0.00 0.00 0.00 73 1012.3
20260507081337 13 0.0 0.0 0.00 0.00 0.00 75 1012.1
20260507080336 13 0.0 0.0 0.00 0.00 0.00 75 1012.0
20260507075343 13 0.0 0.0 0.00 0.00 0.00 76 1012.0
20260507074336 12 0.0 0.0 0.00 0.00 0.00 76 1012.0
20260507073336 12 0.0 0.0 0.00 0.00 0.00 80 1011.8
20260507072336 12 0.0 0.0 0.00 0.00 0.00 80 1011.8
20260507071343 12 0.0 0.0 0.00 0.00 0.00 80 1011.6
20260507070336 12 0.0 0.0 0.00 0.00 0.00 80 1011.5
20260507065336 12 0.0 0.0 0.00 0.00 0.00 81 1011.5
20260507064336 12 0.0 0.0 0.00 0.00 0.00 81 1011.5
20260507063343 12 0.0 0.0 0.00 0.00 0.00 83 1011.3
20260507062336 12 0.0 0.0 0.00 0.00 0.00 83 1011.2
20260507061336 12 0.0 0.0 0.00 0.00 0.00 85 1011.0
20260507060337 11 0.0 0.0 0.00 0.00 0.00 87 1010.8
20260507055343 11 0.0 0.0 0.00 0.00 0.00 87 1010.7
20260507054337 11 0.0 0.0 0.00 0.00 0.00 88 1010.5
20260507052336 11 0.0 0.0 0.00 0.00 0.00 89 1010.4
20260507051343 11 0.0 0.0 0.00 0.00 0.00 91 1010.2
20260507050338 11 0.0 0.0 0.00 0.00 0.00 91 1010.2
20260507045337 10 0.0 0.0 0.00 0.00 0.00 91 1010.3
20260507044337 10 0.0 0.0 0.00 0.00 0.00 92 1010.1
20260507042336 10 0.0 0.0 0.00 0.00 0.00 92 1009.8
20260507041336 10 0.0 0.0 0.00 0.00 0.00 92 1009.8
20260507040336 10 0.0 0.0 0.00 0.00 0.00 92 1009.8
20260507034336 10 0.0 0.0 0.00 0.00 0.00 92 1009.7
20260507033336 10 0.0 0.0 0.00 0.00 0.00 92 1009.7
20260507032336 10 0.0 0.0 0.00 0.00 0.00 91 1009.8
20260507031426 10 0.0 0.0 0.00 0.00 0.00 91 1009.7
20260507030334 10 0.0 0.0 0.00 0.00 0.00 91 1009.7
20260507025334 10 0.0 0.0 0.00 0.00 0.00 91 1009.7
20260507024334 10 0.0 0.0 0.00 0.00 0.00 91 1009.6
20260507022335 10 0.0 0.0 0.00 0.00 0.00 91 1009.5
20260507021335 11 0.0 0.0 0.00 0.00 0.00 91 1009.3
20260507020334 11 0.0 0.0 0.00 0.00 0.00 91 1009.5
20260507014334 11 0.0 0.0 0.00 0.00 0.00 91 1009.3
20260507013334 11 0.0 0.0 0.00 0.00 0.00 91 1009.1
20260507012335 11 0.0 0.0 0.00 0.00 0.00 91 1009.0
20260507010334 11 0.0 0.0 0.00 0.00 0.00 91 1009.0
20260507005334 11 0.0 0.0 0.00 0.00 0.00 92 1009.0
20260507004334 12 0.0 0.0 0.00 0.00 0.00 92 1008.7
20260507003342 12 0.0 0.0 0.00 0.00 0.00 92 1008.7
20260507002334 12 0.0 0.0 0.00 0.00 0.00 92 1008.5
20260507001334 12 0.0 0.0 0.00 0.00 0.00 91 1008.5
20260507000336 12 0.0 0.0 0.00 0.00 0.00 92 1008.6
20260506234334 12 0.0 0.0 0.00 0.00 0.00 91 1008.5
20260506233334 12 0.0 0.0 0.00 0.00 0.00 91 1008.4
20260506232335 12 0.0 0.0 0.00 0.00 0.00 91 1008.4
20260506230335 12 0.0 0.0 0.00 0.00 0.00 92 1008.3
20260506225334 12 0.0 0.0 0.00 0.00 0.00 92 1008.4
20260506224334 12 0.0 0.0 0.00 0.00 0.00 91 1008.3
20260506222334 13 0.0 0.0 0.00 0.00 0.00 91 1008.2
20260506221334 13 0.0 0.0 0.00 0.00 0.00 91 1008.3
20260506220334 13 0.0 0.0 0.00 0.00 0.00 90 1008.2
20260506214334 13 0.0 0.0 0.00 0.00 0.00 91 1008.2
20260506213334 13 0.0 0.0 0.00 0.00 0.00 90 1008.3
20260506212334 13 0.0 0.0 0.00 0.00 0.00 89 1008.1
20260506210334 13 0.0 0.0 0.00 0.00 0.00 88 1007.8
20260506205334 13 0.0 0.0 0.00 0.00 0.00 88 1007.7
20260506204334 13 0.0 0.0 0.00 0.00 0.00 88 1007.4
20260506202334 13 0.0 0.0 0.00 0.00 0.00 88 1007.8
20260506201334 13 0.0 0.0 0.00 0.00 0.00 88 1007.9
20260506200334 13 0.0 0.0 0.00 0.00 0.00 87 1007.8
20260506195342 13 0.0 0.0 0.00 0.00 0.00 87 1007.2
20260506194334 13 0.0 0.0 0.00 0.00 0.00 84 1006.8
20260506193335 13 0.0 0.0 0.00 0.00 0.00 84 1006.8
20260506192334 14 0.0 0.0 0.00 0.00 0.00 86 1007.3
20260506191342 14 0.0 0.0 0.00 0.00 0.00 87 1006.9
20260506190335 14 0.0 0.0 0.00 0.00 0.00 86 1006.8
20260506185335 15 0.0 0.0 0.00 0.00 0.00 88 1006.7
20260506184336 14 0.0 0.0 0.00 0.00 0.00 87 1006.5
20260506182335 15 0.0 0.0 0.00 0.00 0.00 85 1006.3
20260506181340 15 0.0 0.0 0.00 0.00 0.00 81 1006.2
20260506180335 15 0.0 0.0 0.00 0.00 0.00 80 1006.1
20260506174335 16 0.0 0.0 0.00 0.00 0.00 70 1005.8
20260506173335 16 0.0 0.0 0.00 0.00 0.00 70 1005.8
20260506172335 16 0.0 0.0 0.00 0.00 0.00 70 1005.8
20260506170335 17 0.0 0.0 0.00 0.00 0.00 68 1005.8
20260506165335 17 0.0 0.0 0.00 0.00 0.00 71 1005.7
20260506164335 17 0.0 0.0 0.00 0.00 0.00 71 1006.1
20260506162335 17 0.0 0.0 0.00 0.00 0.00 66 1005.9
20260506161335 17 0.0 0.0 0.00 0.00 0.00 65 1006.0
20260506160335 18 0.0 0.0 0.00 0.00 0.00 65 1006.0
20260506154335 18 0.0 0.0 0.00 0.00 0.00 58 1006.4
20260506153335 18 0.0 0.0 0.00 0.00 0.00 58 1006.6
20260506152335 18 0.0 0.0 0.00 0.00 0.00 59 1006.9
20260506151427 18 0.0 0.0 0.00 0.00 0.00 59 1007.1